Weather in Reydovo

Russia / Sakhalin District     45°16′20″N   148°01′32″E
temp.,
°C
wind,
m/s
gust,
m/s
humid.,
%
clouds,
%
prec.,
mm/h
press.,
hPa
HPBL,
m
17 may, mon
mon1723:00+9ssw92090100 7.0 1008599
02:00+7s61196100 2.3 1006292
05:00+6s4697100 7.2 1004130
08:00+7s3598100 7.8 1003107
11:00+7sse3499100 13.6 100087
14:00+6sse2297100 4.6 99857
17:00+8nnw469693 5.4 999243
20:00+5nnw4898100 0.1 1001202
18 may, tue
tue1823:00+5nnw3698100 0.1 1003165
02:00+4nnw349891 0.1 1005101
05:00+3nnw349694 0.1 100795
08:00+5nnw2391100 0.0 1009110
11:00+8nne2176100 0.0 1009173
14:00+11nne126132 0.0 1010507
17:00+11wsw015728 0.1 1010434
20:00+10sse22674 0.0 101211
19 may, wed
wed1923:00+8ssw227028 0.0 101312
02:00+8s22680 0.0 101310
05:00+8ssw226680 0.0 101311
08:00+11s226394 0.0 101482
11:00+15s3353100 0.0 1014466
14:00+15s3351100 0.0 1013544
17:00+14s4456100 0.0 1013349
20:00+10s3471100 0.0 101488
20 may, thu
thu2023:00+8s447384 0.0 101556
02:00+7s3375100 0.0 101528
05:00+7sw22781 0.0 101512
08:00+10sse11660 0.0 1016100
11:00+15se11540 0.0 1016426
14:00+16sse23511 0.0 1015584
17:00+15ssw12565 0.0 1015390
20:00+13s226923 0.0 101537
21 may, fri
fri2123:00+10s44771 0.0 101650
02:00+10s44821 0.0 101542
05:00+10ssw44840 0.0 101439
08:00+14ssw4564100 0.0 101399
11:00+16ssw4554100 0.0 1013194
14:00+16ssw2353100 0.0 1012251
17:00+16ssw3360100 0.0 1011190
20:00+12s2376100 0.0 101257